Time,TemperatureF,DewpointF,PressureIn,WindDirection,WindDirectionDegrees,WindSpeedMPH,WindSpeedGustMPH,Humidity,HourlyPrecipIn,Conditions,Clouds,dailyrainin,SoftwareType,DateUTC
2013-03-30 00:57:00,41.2,28.8,29.42,SE,135,0.0,0.0,61,0.00,,,0.00,WUHU21623XXSP,2013-03-30 05:57:00,
2013-03-30 01:57:00,40.1,28.2,29.40,SE,135,0.0,0.0,62,0.00,,,0.00,WUHU21623XXSP,2013-03-30 06:57:00,
2013-03-30 02:57:00,39.0,28.3,29.39,SE,135,0.0,0.0,65,0.00,,,0.00,WUHU21623XXSP,2013-03-30 07:57:00,
2013-03-30 03:57:00,38.3,28.4,29.38,SE,135,2.7,2.7,67,0.00,,,0.00,WUHU21623XXSP,2013-03-30 08:57:00,
2013-03-30 04:57:00,37.6,28.1,29.36,SE,135,3.8,3.8,68,0.00,,,0.00,WUHU21623XXSP,2013-03-30 09:57:00,
2013-03-30 05:57:00,37.4,28.9,29.34,SSE,158,2.2,2.2,71,0.00,,,0.00,WUHU21623XXSP,2013-03-30 10:57:00,
2013-03-30 06:57:00,38.1,30.3,29.33,SE,135,0.0,0.0,73,0.00,,,0.00,WUHU21623XXSP,2013-03-30 11:57:00,
2013-03-30 07:36:00,39.4,31.4,29.32,South,180,6.0,6.0,73,0.00,,,0.00,WUHU21623XXSP,2013-03-30 12:36:00,
2013-03-30 07:41:00,39.4,31.4,29.32,SSE,157,4.7,6.0,73,0.00,,,0.00,WUHU21623XXSP,2013-03-30 12:41:00,
2013-03-30 07:46:00,39.9,31.7,29.32,SSE,157,6.9,6.9,73,0.00,,,0.00,WUHU21623XXSP,2013-03-30 12:46:00,
2013-03-30 07:52:00,39.9,31.9,29.32,SE,135,1.6,6.9,73,0.00,,,0.00,WUHU21623XXSP,2013-03-30 12:52:00,
2013-03-30 07:57:00,40.3,32.3,29.31,SSE,157,3.1,5.8,73,0.00,,,0.00,WUHU21623XXSP,2013-03-30 12:57:00,
2013-03-30 08:02:00,40.5,31.9,29.31,South,180,0.0,5.8,72,0.00,,,0.00,WUHU21623XXSP,2013-03-30 13:02:00,
2013-03-30 08:07:00,40.6,32.6,29.31,SE,135,5.1,5.1,73,0.00,,,0.00,WUHU21623XXSP,2013-03-30 13:07:00,
2013-03-30 08:12:00,40.8,32.8,29.31,SSE,157,2.2,5.1,73,0.00,,,0.00,WUHU21623XXSP,2013-03-30 13:12:00,
2013-03-30 08:17:00,41.0,32.8,29.31,SE,135,8.7,8.7,73,0.00,,,0.00,WUHU21623XXSP,2013-03-30 13:17:00,
2013-03-30 08:22:00,41.2,33.2,29.31,SE,135,0.0,8.7,73,0.00,,,0.00,WUHU21623XXSP,2013-03-30 13:22:00,
2013-03-30 08:27:00,41.4,33.2,29.31,SSE,157,5.4,5.4,73,0.00,,,0.00,WUHU21623XXSP,2013-03-30 13:27:00,
2013-03-30 08:32:00,41.5,33.5,29.31,SSE,157,1.8,5.4,73,0.00,,,0.00,WUHU21623XXSP,2013-03-30 13:32:00,
2013-03-30 08:37:00,41.7,33.5,29.31,SE,135,0.0,1.8,73,0.00,,,0.00,WUHU21623XXSP,2013-03-30 13:37:00,
2013-03-30 08:42:00,42.1,34.1,29.31,SSE,157,3.6,3.6,73,0.00,,,0.00,WUHU21623XXSP,2013-03-30 13:42:00,
2013-03-30 08:47:00,42.1,34.4,29.31,SSE,157,0.0,3.6,74,0.00,,,0.00,WUHU21623XXSP,2013-03-30 13:47:00,
2013-03-30 08:52:00,42.4,34.7,29.31,SSE,157,1.8,3.6,74,0.00,,,0.00,WUHU21623XXSP,2013-03-30 13:52:00,
2013-03-30 08:57:00,42.6,34.9,29.31,SE,135,2.0,2.0,74,0.00,,,0.00,WUHU21623XXSP,2013-03-30 13:57:00,
2013-03-30 09:02:00,43.0,34.9,29.30,SSE,157,4.5,4.5,74,0.00,,,0.00,WUHU21623XXSP,2013-03-30 14:02:00,
2013-03-30 09:07:00,43.0,35.3,29.30,SSE,157,5.6,5.6,74,0.00,,,0.00,WUHU21623XXSP,2013-03-30 14:07:00,
2013-03-30 09:12:00,43.3,35.6,29.30,SSE,157,5.1,5.8,74,0.00,,,0.00,WUHU21623XXSP,2013-03-30 14:12:00,
2013-03-30 09:17:00,43.3,35.8,29.30,SSE,157,6.9,6.9,75,0.00,,,0.00,WUHU21623XXSP,2013-03-30 14:17:00,
2013-03-30 09:22:00,43.7,36.3,29.30,SSE,157,6.7,6.9,75,0.00,,,0.00,WUHU21623XXSP,2013-03-30 14:22:00,
2013-03-30 09:27:00,44.1,36.6,29.29,SSE,157,3.1,6.9,75,0.00,,,0.00,WUHU21623XXSP,2013-03-30 14:27:00,
2013-03-30 09:32:00,44.2,37.1,29.30,South,180,2.0,3.1,76,0.00,,,0.00,WUHU21623XXSP,2013-03-30 14:32:00,
2013-03-30 09:37:00,44.8,37.3,29.30,South,180,2.0,3.1,76,0.00,,,0.00,WUHU21623XXSP,2013-03-30 14:37:00,
2013-03-30 09:42:00,45.0,37.8,29.30,SE,135,4.0,4.0,76,0.00,,,0.00,WUHU21623XXSP,2013-03-30 14:42:00,
2013-03-30 09:47:00,45.3,38.2,29.30,SSE,157,7.2,7.2,76,0.00,,,0.00,WUHU21623XXSP,2013-03-30 14:47:00,
2013-03-30 09:52:00,45.7,38.6,29.30,SSE,157,0.0,7.2,76,0.00,,,0.00,WUHU21623XXSP,2013-03-30 14:52:00,
2013-03-30 09:57:00,46.0,38.9,29.30,SSE,157,5.4,5.4,76,0.00,,,0.00,WUHU21623XXSP,2013-03-30 14:57:00,
2013-03-30 10:02:00,46.2,39.1,29.29,South,180,8.3,8.3,76,0.00,,,0.00,WUHU21623XXSP,2013-03-30 15:02:00,
2013-03-30 10:07:00,46.6,39.4,29.29,South,180,2.7,8.3,76,0.00,,,0.00,WUHU21623XXSP,2013-03-30 15:07:00,
2013-03-30 10:12:00,46.8,39.6,29.29,South,180,6.9,7.2,76,0.00,,,0.00,WUHU21623XXSP,2013-03-30 15:12:00,
2013-03-30 10:17:00,47.1,39.8,29.29,ESE,112,10.1,10.1,76,0.00,,,0.00,WUHU21623XXSP,2013-03-30 15:17:00,
2013-03-30 10:22:00,47.5,40.2,29.29,South,180,6.5,10.1,76,0.00,,,0.00,WUHU21623XXSP,2013-03-30 15:22:00,
2013-03-30 10:27:00,47.5,40.2,29.29,SSE,157,1.3,10.1,76,0.00,,,0.00,WUHU21623XXSP,2013-03-30 15:27:00,
2013-03-30 10:32:00,47.8,40.6,29.28,SSE,157,5.6,5.6,76,0.00,,,0.00,WUHU21623XXSP,2013-03-30 15:32:00,
2013-03-30 10:37:00,47.8,40.2,29.28,South,180,0.0,5.6,75,0.00,,,0.00,WUHU21623XXSP,2013-03-30 15:37:00,
2013-03-30 10:42:00,48.0,40.4,29.28,South,180,0.0,0.0,75,0.00,,,0.00,WUHU21623XXSP,2013-03-30 15:42:00,
2013-03-30 10:47:00,48.2,40.4,29.28,ESE,112,0.2,0.2,75,0.00,,,0.00,WUHU21623XXSP,2013-03-30 15:47:00,
2013-03-30 10:52:00,48.6,40.9,29.27,South,180,7.2,8.1,75,0.00,,,0.00,WUHU21623XXSP,2013-03-30 15:52:00,
2013-03-30 10:57:00,48.7,41.1,29.27,South,180,5.4,8.1,75,0.00,,,0.00,WUHU21623XXSP,2013-03-30 15:57:00,
2013-03-30 11:02:00,49.1,41.5,29.27,SSE,157,6.5,7.2,75,0.00,,,0.00,WUHU21623XXSP,2013-03-30 16:02:00,
2013-03-30 11:07:00,49.6,42.0,29.27,SSE,157,6.9,7.6,75,0.00,,,0.00,WUHU21623XXSP,2013-03-30 16:07:00,
2013-03-30 11:12:00,49.8,41.8,29.27,South,180,8.3,8.3,74,0.00,,,0.00,WUHU21623XXSP,2013-03-30 16:12:00,
2013-03-30 11:17:00,50.2,42.2,29.26,SSE,157,2.9,8.3,74,0.00,,,0.00,WUHU21623XXSP,2013-03-30 16:17:00,
2013-03-30 11:22:00,50.5,42.5,29.26,SW,225,6.9,8.1,74,0.00,,,0.00,WUHU21623XXSP,2013-03-30 16:22:00,
2013-03-30 11:27:00,50.7,42.4,29.26,South,180,6.7,8.1,73,0.00,,,0.00,WUHU21623XXSP,2013-03-30 16:27:00,
2013-03-30 11:32:00,51.1,42.7,29.26,South,180,10.5,14.1,73,0.00,,,0.00,WUHU21623XXSP,2013-03-30 16:32:00,
2013-03-30 11:37:00,51.6,42.9,29.27,South,180,6.0,14.1,72,0.00,,,0.00,WUHU21623XXSP,2013-03-30 16:37:00,
2013-03-30 11:43:00,52.0,43.1,29.26,SE,135,0.0,7.6,72,0.00,,,0.00,WUHU21623XXSP,2013-03-30 16:43:00,
2013-03-30 11:47:00,52.3,43.4,29.26,SW,225,9.8,9.8,72,0.00,,,0.00,WUHU21623XXSP,2013-03-30 16:47:00,
2013-03-30 11:52:00,53.2,43.8,29.25,SW,225,0.4,9.8,71,0.00,,,0.00,WUHU21623XXSP,2013-03-30 16:52:00,
2013-03-30 11:57:00,53.6,44.1,29.25,South,180,10.3,10.3,70,0.00,,,0.00,WUHU21623XXSP,2013-03-30 16:57:00,
2013-03-30 12:02:00,54.1,44.2,29.25,SE,135,7.6,10.3,69,0.00,,,0.00,WUHU21623XXSP,2013-03-30 17:02:00,
2013-03-30 12:07:00,55.0,44.3,29.25,South,180,6.0,7.6,68,0.00,,,0.00,WUHU21623XXSP,2013-03-30 17:07:00,
2013-03-30 12:13:00,55.6,44.4,29.24,SW,225,5.1,7.4,66,0.00,,,0.00,WUHU21623XXSP,2013-03-30 17:13:00,
2013-03-30 12:18:00,56.3,44.6,29.24,SSW,202,0.0,6.0,65,0.00,,,0.00,WUHU21623XXSP,2013-03-30 17:18:00,
2013-03-30 12:23:00,56.5,44.4,29.24,SSE,157,12.5,12.5,64,0.00,,,0.00,WUHU21623XXSP,2013-03-30 17:23:00,
2013-03-30 12:28:00,57.0,44.5,29.24,East,90,1.8,12.5,63,0.00,,,0.00,WUHU21623XXSP,2013-03-30 17:28:00,
2013-03-30 12:33:00,57.0,43.7,29.24,SSW,202,7.2,8.3,61,0.00,,,0.00,WUHU21623XXSP,2013-03-30 17:33:00,
2013-03-30 12:38:00,57.0,44.1,29.24,SSW,202,6.5,12.5,62,0.00,,,0.00,WUHU21623XXSP,2013-03-30 17:38:00,
2013-03-30 12:43:00,57.2,43.9,29.24,SE,135,9.8,12.5,61,0.00,,,0.00,WUHU21623XXSP,2013-03-30 17:43:00,
2013-03-30 12:48:00,57.4,44.1,29.23,South,180,11.9,11.9,61,0.00,,,0.00,WUHU21623XXSP,2013-03-30 17:48:00,
2013-03-30 12:53:00,57.4,43.7,29.23,WSW,247,6.9,11.9,60,0.00,,,0.00,WUHU21623XXSP,2013-03-30 17:53:00,
2013-03-30 12:58:00,57.4,43.7,29.23,SSW,202,3.4,6.9,60,0.00,,,0.00,WUHU21623XXSP,2013-03-30 17:58:00,
2013-03-30 13:03:00,57.0,43.3,29.23,South,180,7.2,7.2,60,0.00,,,0.00,WUHU21623XXSP,2013-03-30 18:03:00,
2013-03-30 13:08:00,56.8,43.2,29.23,SSW,202,4.5,9.8,60,0.00,,,0.00,WUHU21623XXSP,2013-03-30 18:08:00,
2013-03-30 13:13:00,56.8,43.2,29.23,SSE,157,8.1,9.8,60,0.00,,,0.00,WUHU21623XXSP,2013-03-30 18:13:00,
2013-03-30 13:18:00,56.5,43.2,29.23,SW,225,6.5,8.1,60,0.00,,,0.00,WUHU21623XXSP,2013-03-30 18:18:00,
2013-03-30 13:23:00,56.7,42.5,29.22,South,180,5.4,8.7,59,0.00,,,0.00,WUHU21623XXSP,2013-03-30 18:23:00,
2013-03-30 13:28:00,56.5,42.3,29.22,ESE,112,5.6,8.7,59,0.00,,,0.00,WUHU21623XXSP,2013-03-30 18:28:00,
2013-03-30 13:33:00,56.3,42.2,29.21,SSE,157,7.6,7.6,59,0.00,,,0.00,WUHU21623XXSP,2013-03-30 18:33:00,
2013-03-30 13:38:00,56.3,42.2,29.21,SSW,202,3.8,8.5,59,0.00,,,0.00,WUHU21623XXSP,2013-03-30 18:38:00,
2013-03-30 13:43:00,56.3,42.2,29.21,SSW,202,4.7,8.5,59,0.00,,,0.00,WUHU21623XXSP,2013-03-30 18:43:00,
2013-03-30 13:48:00,56.3,42.2,29.22,SSE,157,10.1,10.1,59,0.00,,,0.00,WUHU21623XXSP,2013-03-30 18:48:00,
2013-03-30 13:53:00,56.5,41.9,29.22,South,180,5.4,10.1,58,0.00,,,0.00,WUHU21623XXSP,2013-03-30 18:53:00,
2013-03-30 13:59:00,56.1,41.5,29.23,SSE,157,0.0,6.5,58,0.00,,,0.00,WUHU21623XXSP,2013-03-30 18:59:00,
2013-03-30 14:03:00,56.1,41.0,29.22,SW,225,6.7,15.7,57,0.00,,,0.00,WUHU21623XXSP,2013-03-30 19:03:00,
2013-03-30 14:08:00,55.9,41.3,29.22,SSW,202,0.0,15.7,58,0.00,,,0.00,WUHU21623XXSP,2013-03-30 19:08:00,
2013-03-30 14:14:00,55.8,41.1,29.22,WSW,247,0.0,7.8,58,0.00,,,0.00,WUHU21623XXSP,2013-03-30 19:14:00,
2013-03-30 14:19:00,55.6,41.0,29.22,WSW,247,7.2,7.8,58,0.00,,,0.00,WUHU21623XXSP,2013-03-30 19:19:00,
2013-03-30 14:24:00,55.8,41.1,29.22,South,180,0.9,7.2,58,0.00,,,0.00,WUHU21623XXSP,2013-03-30 19:24:00,
2013-03-30 14:29:00,56.1,42.0,29.21,WSW,247,6.5,6.5,59,0.00,,,0.00,WUHU21623XXSP,2013-03-30 19:29:00,
2013-03-30 14:34:00,56.5,41.9,29.20,SW,225,6.0,6.5,58,0.00,,,0.00,WUHU21623XXSP,2013-03-30 19:34:00,
2013-03-30 14:39:00,57.0,41.9,29.20,SSW,202,2.9,6.0,57,0.00,,,0.00,WUHU21623XXSP,2013-03-30 19:39:00,
2013-03-30 14:44:00,57.4,41.8,29.20,SW,225,4.5,6.0,56,0.00,,,0.00,WUHU21623XXSP,2013-03-30 19:44:00,
2013-03-30 14:49:00,57.4,41.8,29.20,SSW,202,3.4,4.5,56,0.00,,,0.00,WUHU21623XXSP,2013-03-30 19:49:00,
2013-03-30 14:54:00,57.4,41.3,29.20,SSW,202,11.6,11.6,55,0.00,,,0.00,WUHU21623XXSP,2013-03-30 19:54:00,
2013-03-30 14:59:00,57.0,41.0,29.20,SSW,202,4.0,11.6,55,0.00,,,0.00,WUHU21623XXSP,2013-03-30 19:59:00,
2013-03-30 15:04:00,57.0,41.5,29.19,SW,225,3.8,10.7,56,0.00,,,0.00,WUHU21623XXSP,2013-03-30 20:04:00,
2013-03-30 15:09:00,56.8,41.3,29.19,SSW,202,10.7,10.7,56,0.00,,,0.00,WUHU21623XXSP,2013-03-30 20:09:00,
2013-03-30 15:14:00,56.8,41.3,29.19,West,270,7.6,10.7,56,0.00,,,0.00,WUHU21623XXSP,2013-03-30 20:14:00,
2013-03-30 15:19:00,56.5,41.4,29.19,SW,225,6.7,7.8,57,0.00,,,0.00,WUHU21623XXSP,2013-03-30 20:19:00,
2013-03-30 15:24:00,56.3,41.2,29.19,SW,225,0.0,6.7,57,0.00,,,0.00,WUHU21623XXSP,2013-03-30 20:24:00,
2013-03-30 15:29:00,56.1,41.5,29.19,SW,225,7.2,7.2,58,0.00,,,0.00,WUHU21623XXSP,2013-03-30 20:29:00,
2013-03-30 15:34:00,55.9,41.3,29.19,SSW,202,1.6,9.8,58,0.00,,,0.00,WUHU21623XXSP,2013-03-30 20:34:00,
2013-03-30 15:39:00,55.8,41.1,29.19,WSW,247,10.1,10.1,58,0.00,,,0.00,WUHU21623XXSP,2013-03-30 20:39:00,
2013-03-30 15:44:00,55.4,40.8,29.18,SW,225,6.9,10.1,58,0.00,,,0.00,WUHU21623XXSP,2013-03-30 20:44:00,
2013-03-30 15:49:00,55.2,41.1,29.18,WSW,247,1.1,8.1,59,0.00,,,0.00,WUHU21623XXSP,2013-03-30 20:49:00,
2013-03-30 15:54:00,55.0,40.9,29.18,WSW,247,7.4,7.4,59,0.00,,,0.00,WUHU21623XXSP,2013-03-30 20:54:00,
2013-03-30 15:59:00,54.7,41.1,29.18,SW,225,9.8,9.8,60,0.00,,,0.00,WUHU21623XXSP,2013-03-30 20:59:00,
2013-03-30 16:04:00,54.5,40.9,29.17,SW,225,5.1,9.8,60,0.00,,,0.00,WUHU21623XXSP,2013-03-30 21:04:00,
2013-03-30 16:09:00,54.3,40.7,29.17,SW,225,4.0,5.1,60,0.00,,,0.00,WUHU21623XXSP,2013-03-30 21:09:00,
2013-03-30 16:14:00,54.3,40.7,29.17,SW,225,2.9,4.0,60,0.00,,,0.00,WUHU21623XXSP,2013-03-30 21:14:00,
2013-03-30 16:19:00,54.1,40.6,29.16,SSW,202,1.8,6.7,60,0.00,,,0.00,WUHU21623XXSP,2013-03-30 21:19:00,
2013-03-30 16:24:00,54.1,41.0,29.17,South,180,0.0,6.7,61,0.00,,,0.00,WUHU21623XXSP,2013-03-30 21:24:00,
2013-03-30 16:29:00,54.0,40.8,29.16,SSW,202,1.1,2.7,61,0.00,,,0.00,WUHU21623XXSP,2013-03-30 21:29:00,
2013-03-30 16:34:00,54.0,40.8,29.16,SSW,202,2.0,2.7,61,0.00,,,0.00,WUHU21623XXSP,2013-03-30 21:34:00,
2013-03-30 16:39:00,54.0,40.8,29.15,SSW,202,1.3,2.0,61,0.00,,,0.00,WUHU21623XXSP,2013-03-30 21:39:00,
2013-03-30 16:44:00,54.1,41.0,29.15,South,180,0.0,1.3,61,0.00,,,0.00,WUHU21623XXSP,2013-03-30 21:44:00,
2013-03-30 16:49:00,54.1,41.0,29.15,SW,225,0.7,2.2,61,0.00,,,0.00,WUHU21623XXSP,2013-03-30 21:49:00,
2013-03-30 16:54:00,54.3,41.1,29.15,South,180,4.9,4.9,61,0.00,,,0.00,WUHU21623XXSP,2013-03-30 21:54:00,
2013-03-30 16:59:00,54.1,40.6,29.14,SW,225,3.8,4.9,60,0.00,,,0.00,WUHU21623XXSP,2013-03-30 21:59:00,
2013-03-30 17:04:00,54.0,40.4,29.14,South,180,6.5,10.7,60,0.00,,,0.00,WUHU21623XXSP,2013-03-30 22:04:00,
2013-03-30 17:09:00,53.8,40.3,29.14,SSW,202,6.7,10.7,60,0.00,,,0.00,WUHU21623XXSP,2013-03-30 22:09:00,
2013-03-30 17:14:00,53.4,39.5,29.14,South,180,2.9,6.7,59,0.00,,,0.00,WUHU21623XXSP,2013-03-30 22:14:00,
2013-03-30 17:19:00,53.4,39.5,29.14,South,180,8.5,8.5,59,0.00,,,0.00,WUHU21623XXSP,2013-03-30 22:19:00,
2013-03-30 17:24:00,53.2,39.5,29.13,South,180,8.5,8.5,59,0.00,,,0.00,WUHU21623XXSP,2013-03-30 22:24:00,
2013-03-30 17:29:00,52.9,38.9,29.13,South,180,8.3,8.5,59,0.00,,,0.00,WUHU21623XXSP,2013-03-30 22:29:00,
2013-03-30 17:34:00,52.7,38.9,29.13,South,180,5.1,8.5,59,0.00,,,0.00,WUHU21623XXSP,2013-03-30 22:34:00,
2013-03-30 17:39:00,52.5,39.2,29.13,South,180,5.1,5.1,60,0.00,,,0.00,WUHU21623XXSP,2013-03-30 22:39:00,
2013-03-30 17:44:00,52.3,38.8,29.14,SSW,202,1.8,5.1,60,0.00,,,0.00,WUHU21623XXSP,2013-03-30 22:44:00,
2013-03-30 17:49:00,52.2,39.1,29.13,SSW,202,1.8,1.8,61,0.00,,,0.00,WUHU21623XXSP,2013-03-30 22:49:00,
2013-03-30 17:54:00,52.0,38.9,29.13,SSW,202,5.8,5.8,61,0.00,,,0.00,WUHU21623XXSP,2013-03-30 22:54:00,
2013-03-30 17:59:00,51.8,38.7,29.13,SSW,202,6.7,6.7,61,0.00,,,0.00,WUHU21623XXSP,2013-03-30 22:59:00,
2013-03-30 18:04:00,51.8,38.7,29.13,SSW,202,6.7,6.7,61,0.00,,,0.00,WUHU21623XXSP,2013-03-30 23:04:00,
2013-03-30 18:09:00,51.6,38.5,29.13,WSW,247,8.3,8.3,61,0.00,,,0.00,WUHU21623XXSP,2013-03-30 23:09:00,
2013-03-30 18:14:00,51.6,38.5,29.13,South,180,0.0,8.3,61,0.00,,,0.00,WUHU21623XXSP,2013-03-30 23:14:00,
2013-03-30 18:19:00,51.6,38.9,29.13,WSW,247,4.7,4.7,62,0.00,,,0.00,WUHU21623XXSP,2013-03-30 23:19:00,
2013-03-30 18:24:00,51.6,38.9,29.13,SW,225,0.0,4.7,62,0.00,,,0.00,WUHU21623XXSP,2013-03-30 23:24:00,
2013-03-30 18:29:00,51.4,38.8,29.13,SW,225,0.7,2.9,62,0.00,,,0.00,WUHU21623XXSP,2013-03-30 23:29:00,
2013-03-30 18:34:00,51.4,38.8,29.13,SW,225,4.9,4.9,62,0.00,,,0.00,WUHU21623XXSP,2013-03-30 23:34:00,
2013-03-30 18:39:00,51.3,38.6,29.13,SW,225,1.8,4.9,62,0.00,,,0.00,WUHU21623XXSP,2013-03-30 23:39:00,
2013-03-30 18:44:00,51.1,38.9,29.13,SSW,202,6.0,6.0,63,0.00,,,0.00,WUHU21623XXSP,2013-03-30 23:44:00,
2013-03-30 18:49:00,50.9,38.7,29.13,SSW,202,1.6,6.0,63,0.00,,,0.00,WUHU21623XXSP,2013-03-30 23:49:00,
2013-03-30 18:54:00,50.7,38.7,29.13,SSW,202,3.6,6.0,63,0.00,,,0.00,WUHU21623XXSP,2013-03-30 23:54:00,
2013-03-30 18:59:00,50.7,38.9,29.13,SSW,202,0.0,3.6,64,0.00,,,0.00,WUHU21623XXSP,2013-03-30 23:59:00,
2013-03-30 19:04:00,50.5,38.8,29.13,SSW,202,0.0,3.6,64,0.00,,,0.00,WUHU21623XXSP,2013-03-31 00:04:00,
2013-03-30 19:09:00,50.5,38.8,29.13,SW,225,0.0,6.3,64,0.00,,,0.00,WUHU21623XXSP,2013-03-31 00:09:00,
2013-03-30 19:14:00,50.2,39.0,29.13,SW,225,4.5,6.3,65,0.00,,,0.00,WUHU21623XXSP,2013-03-31 00:14:00,
2013-03-30 19:19:00,50.2,38.8,29.12,SSW,202,0.0,4.5,65,0.00,,,0.00,WUHU21623XXSP,2013-03-31 00:19:00,
2013-03-30 19:24:00,50.2,38.8,29.12,SSW,202,0.0,0.0,65,0.00,,,0.00,WUHU21623XXSP,2013-03-31 00:24:00,
2013-03-30 19:29:00,49.8,38.5,29.13,SSW,202,0.0,0.0,65,0.00,,,0.00,WUHU21623XXSP,2013-03-31 00:29:00,
2013-03-30 19:34:00,49.8,38.9,29.12,SW,225,2.9,2.9,66,0.00,,,0.00,WUHU21623XXSP,2013-03-31 00:34:00,
2013-03-30 19:39:00,49.8,38.9,29.12,SW,225,0.0,2.9,66,0.00,,,0.00,WUHU21623XXSP,2013-03-31 00:39:00,
2013-03-30 19:44:00,49.6,38.7,29.12,SW,225,4.0,4.0,66,0.00,,,0.00,WUHU21623XXSP,2013-03-31 00:44:00,
2013-03-30 19:49:00,49.6,39.1,29.12,SW,225,0.0,6.0,67,0.00,,,0.00,WUHU21623XXSP,2013-03-31 00:49:00,
2013-03-30 19:54:00,49.6,39.1,29.12,SW,225,0.0,6.0,67,0.00,,,0.00,WUHU21623XXSP,2013-03-31 00:54:00,
2013-03-30 19:59:00,49.3,38.8,29.12,SW,225,0.0,0.0,67,0.00,,,0.00,WUHU21623XXSP,2013-03-31 00:59:00,
2013-03-30 20:04:00,49.3,38.8,29.12,SW,225,0.0,0.0,68,0.00,,,0.00,WUHU21623XXSP,2013-03-31 01:04:00,
2013-03-30 20:09:00,49.1,39.0,29.12,SW,225,6.7,6.7,68,0.00,,,0.00,WUHU21623XXSP,2013-03-31 01:09:00,
2013-03-30 20:14:00,49.1,39.0,29.13,SW,225,6.7,6.7,69,0.00,,,0.00,WUHU21623XXSP,2013-03-31 01:14:00,
2013-03-30 20:19:00,49.1,39.3,29.13,SW,225,6.9,6.9,69,0.00,,,0.00,WUHU21623XXSP,2013-03-31 01:19:00,
2013-03-30 20:24:00,48.9,39.6,29.13,SW,225,6.9,6.9,70,0.00,,,0.00,WUHU21623XXSP,2013-03-31 01:24:00,
2013-03-30 20:29:00,48.7,39.7,29.13,WSW,247,4.7,9.6,71,0.00,,,0.00,WUHU21623XXSP,2013-03-31 01:29:00,
2013-03-30 20:34:00,48.7,39.7,29.13,SW,225,0.0,9.6,71,0.00,,,0.00,WUHU21623XXSP,2013-03-31 01:34:00,
2013-03-30 20:39:00,48.6,39.5,29.13,SW,225,0.0,4.7,71,0.00,,,0.00,WUHU21623XXSP,2013-03-31 01:39:00,
2013-03-30 20:44:00,48.4,39.7,29.13,SW,225,1.6,4.3,72,0.00,,,0.00,WUHU21623XXSP,2013-03-31 01:44:00,
2013-03-30 20:49:00,48.2,39.5,29.13,SW,225,4.3,4.3,72,0.00,,,0.00,WUHU21623XXSP,2013-03-31 01:49:00,
2013-03-30 20:54:00,48.0,39.7,29.13,WSW,247,4.5,4.5,73,0.00,,,0.00,WUHU21623XXSP,2013-03-31 01:54:00,
2013-03-30 20:59:00,48.0,39.7,29.13,WSW,247,0.0,4.5,73,0.00,,,0.00,WUHU21623XXSP,2013-03-31 01:59:00,
2013-03-30 21:04:00,48.0,39.7,29.13,WSW,247,0.0,2.7,73,0.00,,,0.00,WUHU21623XXSP,2013-03-31 02:04:00,
2013-03-30 21:09:00,48.0,39.7,29.13,SSW,202,0.0,2.7,73,0.00,,,0.00,WUHU21623XXSP,2013-03-31 02:09:00,
2013-03-30 21:14:00,47.8,39.5,29.13,SSW,202,0.0,0.0,73,0.00,,,0.00,WUHU21623XXSP,2013-03-31 02:14:00,
2013-03-30 21:19:00,47.8,39.9,29.13,SSW,202,0.0,2.9,74,0.00,,,0.00,WUHU21623XXSP,2013-03-31 02:19:00,
2013-03-30 21:24:00,47.7,39.7,29.13,SW,225,0.0,2.9,74,0.00,,,0.00,WUHU21623XXSP,2013-03-31 02:24:00,
2013-03-30 21:29:00,47.7,39.7,29.13,SSW,202,0.7,1.6,74,0.00,,,0.00,WUHU21623XXSP,2013-03-31 02:29:00,
2013-03-30 21:34:00,47.5,39.9,29.13,SW,225,2.5,2.5,75,0.00,,,0.00,WUHU21623XXSP,2013-03-31 02:34:00,
2013-03-30 21:39:00,47.5,39.9,29.13,SW,225,0.0,2.5,75,0.00,,,0.00,WUHU21623XXSP,2013-03-31 02:39:00,
2013-03-30 21:44:00,47.5,39.9,29.13,SW,225,4.5,4.5,75,0.00,,,0.00,WUHU21623XXSP,2013-03-31 02:44:00,
2013-03-30 21:49:00,47.5,39.9,29.13,SW,225,0.0,4.5,75,0.00,,,0.00,WUHU21623XXSP,2013-03-31 02:49:00,
2013-03-30 21:54:00,47.3,39.7,29.13,SW,225,0.0,2.2,75,0.00,,,0.00,WUHU21623XXSP,2013-03-31 02:54:00,
2013-03-30 21:59:00,47.3,39.7,29.13,SW,225,0.0,0.0,75,0.00,,,0.00,WUHU21623XXSP,2013-03-31 02:59:00,
2013-03-30 22:04:00,47.3,39.7,29.13,SW,225,6.9,7.6,75,0.00,,,0.00,WUHU21623XXSP,2013-03-31 03:04:00,
2013-03-30 22:09:00,47.1,39.9,29.13,SW,225,4.5,7.6,76,0.00,,,0.00,WUHU21623XXSP,2013-03-31 03:09:00,
2013-03-30 22:14:00,47.1,39.9,29.13,SW,225,0.0,7.4,76,0.00,,,0.00,WUHU21623XXSP,2013-03-31 03:14:00,
2013-03-30 22:19:00,47.1,40.3,29.13,SW,225,0.0,1.6,77,0.00,,,0.00,WUHU21623XXSP,2013-03-31 03:19:00,
2013-03-30 22:24:00,47.1,39.9,29.14,SW,225,2.7,2.7,76,0.00,,,0.00,WUHU21623XXSP,2013-03-31 03:24:00,
2013-03-30 22:29:00,47.1,39.9,29.13,WSW,247,0.7,5.4,76,0.00,,,0.00,WUHU21623XXSP,2013-03-31 03:29:00,
2013-03-30 22:34:00,47.1,40.3,29.13,SW,225,0.0,5.4,77,0.00,,,0.00,WUHU21623XXSP,2013-03-31 03:34:00,
2013-03-30 22:39:00,46.9,40.1,29.13,SW,225,4.9,4.9,77,0.00,,,0.00,WUHU21623XXSP,2013-03-31 03:39:00,
2013-03-30 22:44:00,46.9,40.1,29.13,SW,225,0.0,4.9,77,0.00,,,0.00,WUHU21623XXSP,2013-03-31 03:44:00,
2013-03-30 22:49:00,46.9,40.1,29.13,WSW,247,0.0,4.9,77,0.00,,,0.00,WUHU21623XXSP,2013-03-31 03:49:00,
2013-03-30 22:57:00,46.8,40.0,29.13,SW,225,1.3,5.8,77,0.00,,,0.00,WUHU21623XXSP,2013-03-31 03:57:00,
2013-03-30 23:57:00,46.2,39.8,29.11,West,270,0.0,0.0,78,0.00,,,0.00,WUHU21623XXSP,2013-03-31 04:57:00,